Home   Weather   Fort Myers   Past weeks

Flag for USA Past Weather in Fort Myers, Florida, USA — Yesterday and Last 2 Weeks

Now
75 °F

Sunny.


Feels Like: 76 °F
Forecast: 63 / 81 °F
Wind: 8 mph from South

Location: Page Field

Current Time: Jan 21, 2017 at 10:49:53 am

Latest Report: Jan 21, 2017 at 9:53 am


Visibility: 10 mi

Pressure: 29.98 "Hg

Humidity: 74%

Dew Point: 66 °F

Location of Fort MyersLocation

Past Weather in Fort Myers — Graph

°F

Fort Myers Temperature Yesterday

Maximum temperature yesterday: 81 °F (at 12:53 pm)
Minimum temperature yesterday: 59 °F (at 6:53 am)
Average temperature yesterday: 70 °F

High & Low Weather Summary for the Past Weeks

 TemperatureHumidityPressure
High83 °F (Jan 17, 2:53 pm)100% (Jan 6, 8:53 am)30.55 "Hg (Jan 6, 8:53 am)
Low40 °F (Jan 8, 5:53 am)31% (Jan 9, 3:53 pm)29.94 "Hg (Jan 7, 2:53 am)
Average67 °F74%30.22 "Hg
* Reported Jan 6 8:53 am — Jan 21 8:53 am, Fort Myers, Weather by CustomWeather, © 2017

Note: Actual official high and low records may vary slightly from our data, if they occured in-between our weather recording intervals... More about our weather records

Advertising

Fort Myers Weather History for the Previous 24 Hours

Scroll right to see more
 ConditionsComfort  
Time TempWeatherWind HumidityBarometerVisibility
8:53 am
Sat, Jan 21
70 °FSunny.5 mph90%29.97 "Hg8 mi
7:53 am66 °FFog.6 mph96%29.96 "Hg4 mi
6:53 am66 °FFog.7 mph96%29.95 "Hg5 mi
5:53 am65 °FFog.6 mph97%29.95 "Hg6 mi
4:53 am64 °FFog.3 mph97%29.96 "Hg3 mi
4:34 am64 °FFog.No wind97%29.96 "Hg1 mi
3:53 am65 °FFog.5 mph97%29.96 "Hg4 mi
2:53 am64 °FFog.No wind97%29.98 "Hg5 mi
1:53 am65 °FFog.3 mph97%29.99 "Hg6 mi
12:53 am65 °FClear.No wind97%29.99 "Hg7 mi
11:53 pm
Fri, Jan 20
66 °FClear.No wind93%30.00 "Hg8 mi
10:53 pm67 °FClear.No wind90%30.01 "Hg9 mi
9:53 pm67 °FClear.No wind93%30.00 "Hg9 mi
8:53 pm70 °FClear.No wind90%29.99 "Hg9 mi
7:53 pm71 °FClear.No wind87%29.98 "Hg10 mi
6:53 pm73 °FClear.3 mph81%29.97 "Hg10 mi
5:53 pm75 °FSunny.6 mph76%29.96 "Hg10 mi
4:53 pm77 °FSunny.7 mph69%29.96 "Hg10 mi
3:53 pm79 °FSunny.9 mph65%29.95 "Hg10 mi
2:53 pm80 °FSunny.9 mph62%29.94 "Hg10 mi
1:53 pm80 °FSunny.10 mph58%29.95 "Hg10 mi
12:53 pm81 °FSunny.9 mph51%29.97 "Hg10 mi
11:53 am80 °FSunny.7 mph56%30.01 "Hg10 mi
10:53 am77 °FSunny.6 mph62%30.02 "Hg10 mi
Weather by CustomWeather, © 2017

See weather overviewHow to use our weather pages